| time (UTC) | temp F | wind direction | speed knots | gust knots | rain 1hr in | rain 24hr in | rain mn in | humidity % | barometer mb |
| 20260901104602 | 75 | 211 | 0.0 | 0.0 | 0.00 | 0.00 | 0.00 | 95 | 1017.3 |
| 20260901104057 | 75 | 211 | 0.0 | 0.0 | 0.00 | 0.00 | 0.00 | 95 | 1017.3 |
| 20260901103557 | 75 | 211 | 0.0 | 0.0 | 0.00 | 0.00 | 0.00 | 95 | 1017.4 |
| 20260901103053 | 75 | 210 | 0.0 | 0.0 | 0.00 | 0.00 | 0.00 | 95 | 1017.4 |
| 20260901102553 | 75 | 210 | 0.0 | 0.0 | 0.00 | 0.00 | 0.00 | 95 | 1017.2 |
| 20260901102047 | 75 | 210 | 0.0 | 0.0 | 0.00 | 0.00 | 0.00 | 95 | 1017.1 |
| 20260901101543 | 75 | 210 | 0.0 | 0.0 | 0.00 | 0.00 | 0.00 | 95 | 1017.3 |
| 20260901101042 | 75 | 210 | 0.0 | 0.0 | 0.00 | 0.00 | 0.00 | 95 | 1017.1 |
| 20260901100537 | 75 | 210 | 0.0 | 0.0 | 0.00 | 0.00 | 0.00 | 95 | 1017.2 |
| 20260901100036 | 75 | 210 | 0.0 | 0.0 | 0.00 | 0.00 | 0.00 | 95 | 1017.2 |
| 20260901095535 | 75 | 210 | 0.0 | 0.0 | 0.00 | 0.00 | 0.00 | 95 | 1017.4 |
| 20260901095033 | 75 | 210 | 0.0 | 0.0 | 0.00 | 0.00 | 0.00 | 95 | 1017.2 |
| 20260901094528 | 75 | 210 | 0.0 | 0.0 | 0.00 | 0.00 | 0.00 | 95 | 1017.1 |
| 20260901094027 | 75 | 210 | 0.0 | 0.0 | 0.00 | 0.00 | 0.00 | 95 | 1017.2 |
| 20260901093522 | 75 | 210 | 0.0 | 0.0 | 0.00 | 0.00 | 0.00 | 95 | 1017.3 |
| 20260901093017 | 75 | 210 | 0.0 | 0.0 | 0.00 | 0.00 | 0.00 | 95 | 1017.3 |
| 20260901092513 | 75 | 208 | 0.0 | 0.0 | 0.00 | 0.00 | 0.00 | 95 | 1017.4 |
| 20260901092009 | 75 | 208 | 0.0 | 0.0 | 0.00 | 0.00 | 0.00 | 94 | 1017.4 |
| 20260901091504 | 75 | 208 | 0.0 | 0.0 | 0.00 | 0.00 | 0.00 | 94 | 1017.1 |
| 20260901091004 | 76 | 208 | 0.0 | 0.0 | 0.00 | 0.00 | 0.00 | 94 | 1017.3 |
| 20260901090504 | 76 | 208 | 0.0 | 0.0 | 0.00 | 0.00 | 0.00 | 94 | 1017.2 |
| 20260901085959 | 76 | 208 | 0.0 | 0.0 | 0.00 | 0.00 | 0.00 | 94 | 1017.3 |
| 20260901085455 | 76 | 209 | 0.0 | 0.0 | 0.00 | 0.00 | 0.00 | 94 | 1017.4 |
| 20260901084951 | 76 | 209 | 0.0 | 0.0 | 0.00 | 0.00 | 0.00 | 94 | 1017.2 |
| 20260901084447 | 76 | 206 | 0.0 | 0.0 | 0.00 | 0.00 | 0.00 | 94 | 1017.3 |
| 20260901083942 | 76 | 214 | 0.0 | 0.0 | 0.00 | 0.00 | 0.00 | 93 | 1017.3 |
| 20260901083437 | 76 | 214 | 0.0 | 0.0 | 0.00 | 0.00 | 0.00 | 93 | 1017.4 |
| 20260901082935 | 76 | 214 | 0.0 | 0.0 | 0.00 | 0.00 | 0.00 | 93 | 1017.6 |
| 20260901082430 | 76 | 214 | 0.0 | 0.0 | 0.00 | 0.00 | 0.00 | 93 | 1017.7 |
| 20260901081925 | 77 | 214 | 0.0 | 0.0 | 0.00 | 0.00 | 0.00 | 93 | 1017.7 |
| 20260901081420 | 77 | 214 | 0.0 | 0.0 | 0.00 | 0.00 | 0.00 | 93 | 1017.8 |
| 20260901080915 | 77 | 216 | 0.0 | 0.0 | 0.00 | 0.00 | 0.00 | 93 | 1017.8 |
| 20260901080409 | 77 | 216 | 0.0 | 0.9 | 0.00 | 0.00 | 0.00 | 93 | 1017.8 |
| 20260901075904 | 77 | 210 | 0.0 | 0.0 | 0.00 | 0.00 | 0.00 | 93 | 1017.7 |
| 20260901075359 | 77 | 202 | 0.0 | 0.0 | 0.00 | 0.00 | 0.00 | 93 | 1017.6 |
| 20260901074853 | 77 | 202 | 0.0 | 0.0 | 0.00 | 0.00 | 0.00 | 92 | 1017.4 |
| 20260901074348 | 77 | 202 | 0.0 | 0.0 | 0.00 | 0.00 | 0.00 | 92 | 1017.7 |
| 20260901073843 | 77 | 202 | 0.0 | 0.0 | 0.00 | 0.00 | 0.00 | 92 | 1017.6 |
| 20260901073339 | 77 | 202 | 0.0 | 0.0 | 0.00 | 0.00 | 0.00 | 92 | 1017.7 |
| 20260901072835 | 77 | 196 | 0.0 | 0.0 | 0.00 | 0.00 | 0.00 | 92 | 1017.7 |
| 20260901072335 | 77 | 211 | 0.0 | 0.0 | 0.00 | 0.00 | 0.00 | 92 | 1017.6 |
| 20260901071830 | 77 | 214 | 0.0 | 0.0 | 0.00 | 0.00 | 0.00 | 92 | 1018.0 |
| 20260901071328 | 77 | 214 | 0.0 | 0.9 | 0.00 | 0.00 | 0.00 | 91 | 1017.9 |
| 20260901070827 | 77 | 216 | 0.0 | 0.0 | 0.00 | 0.00 | 0.00 | 91 | 1017.8 |
| 20260901070324 | 77 | 216 | 0.0 | 0.0 | 0.00 | 0.00 | 0.00 | 91 | 1017.8 |
| 20260901065822 | 77 | 215 | 0.0 | 0.0 | 0.00 | 0.00 | 0.00 | 91 | 1017.8 |
| 20260901065317 | 77 | 213 | 0.9 | 0.9 | 0.00 | 0.00 | 0.00 | 91 | 1018.0 |
| 20260901064813 | 77 | 211 | 0.0 | 0.0 | 0.00 | 0.00 | 0.00 | 91 | 1017.9 |
| 20260901064309 | 77 | 206 | 0.0 | 0.0 | 0.00 | 0.00 | 0.00 | 91 | 1018.0 |
| 20260901063807 | 77 | 206 | 0.0 | 0.0 | 0.00 | 0.00 | 0.00 | 91 | 1018.0 |
| 20260901063303 | 77 | 205 | 0.0 | 0.0 | 0.00 | 0.00 | 0.00 | 91 | 1018.0 |
| 20260901062758 | 77 | 207 | 0.0 | 0.0 | 0.00 | 0.00 | 0.00 | 91 | 1018.0 |
| 20260901062254 | 77 | 204 | 0.0 | 0.9 | 0.00 | 0.00 | 0.00 | 91 | 1018.1 |
| 20260901061749 | 77 | 206 | 0.0 | 0.0 | 0.00 | 0.00 | 0.00 | 91 | 1018.1 |
| 20260901061249 | 77 | 205 | 0.0 | 0.0 | 0.00 | 0.00 | 0.00 | 91 | 1017.9 |
| 20260901060744 | 77 | 205 | 0.0 | 0.0 | 0.00 | 0.00 | 0.00 | 91 | 1018.2 |
| 20260901060240 | 77 | 203 | 0.0 | 0.0 | 0.00 | 0.00 | 0.00 | 91 | 1018.1 |
| 20260901055735 | 77 | 184 | 0.0 | 0.0 | 0.00 | 0.00 | 0.00 | 91 | 1018.2 |
| 20260901055232 | 77 | 196 | 0.0 | 0.0 | 0.00 | 0.00 | 0.00 | 91 | 1018.1 |
| 20260901054728 | 77 | 196 | 0.0 | 0.0 | 0.00 | 0.00 | 0.00 | 91 | 1018.0 |
| 20260901054225 | 77 | 167 | 0.0 | 0.0 | 0.00 | 0.00 | 0.00 | 91 | 1018.0 |
| 20260901053720 | 77 | 178 | 0.0 | 0.0 | 0.00 | 0.00 | 0.00 | 91 | 1018.3 |
| 20260901053215 | 77 | 184 | 0.0 | 0.0 | 0.00 | 0.00 | 0.00 | 90 | 1018.3 |
| 20260901052711 | 77 | 183 | 0.0 | 0.0 | 0.00 | 0.00 | 0.00 | 90 | 1018.1 |
| 20260901052207 | 77 | 173 | 0.0 | 0.0 | 0.00 | 0.00 | 0.00 | 90 | 1018.6 |
| 20260901051705 | 77 | 180 | 0.0 | 0.0 | 0.00 | 0.00 | 0.00 | 89 | 1018.4 |
| 20260901051205 | 77 | 179 | 0.0 | 0.0 | 0.00 | 0.00 | 0.00 | 89 | 1018.2 |
| 20260901050700 | 77 | 190 | 0.0 | 0.9 | 0.00 | 0.00 | 0.00 | 88 | 1018.4 |
| 20260901050155 | 77 | 185 | 0.0 | 0.0 | 0.00 | 0.00 | 0.00 | 87 | 1018.2 |
| 20260901045650 | 77 | 174 | 0.9 | 0.9 | 0.00 | 0.00 | 0.00 | 87 | 1018.0 |
| 20260901045145 | 77 | 175 | 0.0 | 0.0 | 0.00 | 0.00 | 0.00 | 87 | 1018.3 |
| 20260901044640 | 77 | 174 | 0.0 | 0.0 | 0.00 | 0.00 | 0.00 | 86 | 1018.2 |
| 20260901044137 | 77 | 175 | 0.0 | 0.0 | 0.00 | 0.00 | 0.00 | 85 | 1018.1 |
| 20260901043632 | 77 | 175 | 0.0 | 0.0 | 0.00 | 0.00 | 0.00 | 84 | 1018.2 |
| 20260901043128 | 78 | 175 | 0.0 | 0.0 | 0.00 | 0.00 | 0.00 | 84 | 1018.2 |
| 20260901042626 | 78 | 175 | 0.0 | 0.9 | 0.00 | 0.00 | 0.00 | 84 | 1017.9 |
| 20260901042122 | 78 | 174 | 0.9 | 0.9 | 0.00 | 0.00 | 0.00 | 83 | 1018.0 |
| 20260901041618 | 78 | 175 | 0.0 | 0.0 | 0.00 | 0.00 | 0.00 | 83 | 1018.2 |
| 20260901041113 | 78 | 175 | 0.0 | 0.0 | 0.00 | 0.00 | 0.00 | 83 | 1017.9 |
| 20260901040612 | 78 | 177 | 0.0 | 0.9 | 0.00 | 0.00 | 0.00 | 83 | 1018.0 |
| 20260901040106 | 77 | 178 | 0.0 | 0.0 | 0.00 | 0.00 | 0.00 | 83 | 1017.9 |
| 20260901035604 | 77 | 183 | 0.0 | 0.0 | 0.00 | 0.00 | 0.00 | 84 | 1017.9 |
| 20260901035103 | 77 | 176 | 0.0 | 0.0 | 0.00 | 0.00 | 0.00 | 85 | 1018.1 |
| 20260901034603 | 77 | 176 | 0.0 | 0.0 | 0.00 | 0.00 | 0.00 | 86 | 1017.8 |
| 20260901034058 | 77 | 176 | 0.0 | 0.0 | 0.00 | 0.00 | 0.00 | 85 | 1017.7 |
| 20260901033556 | 77 | 176 | 0.0 | 0.0 | 0.00 | 0.00 | 0.00 | 84 | 1017.9 |
| 20260901033051 | 78 | 176 | 0.0 | 0.0 | 0.00 | 0.00 | 0.00 | 84 | 1017.6 |
| 20260901032550 | 78 | 176 | 0.0 | 0.0 | 0.00 | 0.00 | 0.00 | 84 | 1017.8 |
| 20260901032045 | 78 | 175 | 0.0 | 0.0 | 0.00 | 0.00 | 0.00 | 84 | 1017.8 |
| 20260901031540 | 77 | 184 | 0.0 | 0.0 | 0.00 | 0.00 | 0.00 | 85 | 1017.8 |
| 20260901031037 | 78 | 188 | 0.0 | 0.0 | 0.00 | 0.00 | 0.00 | 85 | 1017.8 |
| 20260901030536 | 78 | 188 | 0.0 | 0.0 | 0.00 | 0.00 | 0.00 | 84 | 1017.8 |
| 20260901030031 | 78 | 188 | 0.0 | 0.0 | 0.00 | 0.00 | 0.00 | 84 | 1017.8 |
| 20260901025530 | 78 | 188 | 0.0 | 0.0 | 0.00 | 0.00 | 0.00 | 84 | 1018.0 |
| 20260901025025 | 78 | 188 | 0.0 | 0.0 | 0.00 | 0.00 | 0.00 | 84 | 1017.9 |
| 20260901024520 | 78 | 188 | 0.0 | 0.0 | 0.00 | 0.00 | 0.00 | 83 | 1018.2 |
| 20260901024019 | 78 | 188 | 0.0 | 0.0 | 0.00 | 0.00 | 0.00 | 83 | 1017.9 |
| 20260901023513 | 78 | 188 | 0.0 | 0.0 | 0.00 | 0.00 | 0.00 | 83 | 1018.1 |
| 20260901023008 | 78 | 188 | 0.0 | 0.0 | 0.00 | 0.00 | 0.00 | 83 | 1017.7 |
| 20260901022503 | 78 | 187 | 0.0 | 0.0 | 0.00 | 0.00 | 0.00 | 83 | 1017.9 |
| 20260901021958 | 78 | 189 | 0.0 | 0.0 | 0.00 | 0.00 | 0.00 | 83 | 1017.9 |
| 20260901021454 | 78 | 189 | 0.0 | 0.0 | 0.00 | 0.00 | 0.00 | 83 | 1017.8 |
| 20260901020949 | 78 | 188 | 0.0 | 0.0 | 0.00 | 0.00 | 0.00 | 83 | 1017.7 |
| 20260901020444 | 78 | 189 | 0.0 | 0.0 | 0.00 | 0.00 | 0.00 | 83 | 1017.7 |
| 20260901015943 | 78 | 189 | 0.0 | 0.0 | 0.00 | 0.00 | 0.00 | 83 | 1018.2 |
| 20260901015440 | 78 | 189 | 0.0 | 0.0 | 0.00 | 0.00 | 0.00 | 84 | 1017.7 |
| 20260901014939 | 78 | 189 | 0.0 | 0.0 | 0.00 | 0.00 | 0.00 | 84 | 1017.9 |
| 20260901014435 | 78 | 189 | 0.0 | 0.0 | 0.00 | 0.00 | 0.00 | 83 | 1017.9 |
| 20260901013930 | 78 | 189 | 0.0 | 0.0 | 0.00 | 0.00 | 0.00 | 84 | 1017.7 |
| 20260901013426 | 78 | 189 | 0.0 | 0.0 | 0.00 | 0.00 | 0.00 | 83 | 1017.8 |
| 20260901012922 | 78 | 189 | 0.0 | 0.0 | 0.00 | 0.00 | 0.00 | 84 | 1017.5 |
| 20260901012416 | 78 | 189 | 0.0 | 0.0 | 0.00 | 0.00 | 0.00 | 83 | 1017.6 |
| 20260901011912 | 78 | 189 | 0.0 | 0.0 | 0.00 | 0.00 | 0.00 | 83 | 1017.3 |
| 20260901011408 | 78 | 189 | 0.0 | 0.0 | 0.00 | 0.00 | 0.00 | 83 | 1017.4 |
| 20260901010906 | 78 | 189 | 0.0 | 0.0 | 0.00 | 0.00 | 0.00 | 82 | 1017.4 |
| 20260901010401 | 78 | 189 | 0.0 | 0.0 | 0.00 | 0.00 | 0.00 | 82 | 1017.2 |
| 20260901005900 | 78 | 189 | 0.0 | 0.0 | 0.00 | 0.00 | 0.00 | 82 | 1017.3 |
| 20260901005355 | 78 | 189 | 0.0 | 0.0 | 0.00 | 0.00 | 0.00 | 81 | 1017.0 |
| 20260901004850 | 79 | 189 | 0.0 | 0.0 | 0.00 | 0.00 | 0.00 | 81 | 1017.4 |
| 20260901004349 | 79 | 189 | 0.0 | 0.0 | 0.00 | 0.00 | 0.00 | 80 | 1017.1 |
| 20260901003844 | 79 | 189 | 0.0 | 0.0 | 0.00 | 0.00 | 0.00 | 79 | 1017.3 |
| 20260901003339 | 79 | 189 | 0.0 | 0.0 | 0.00 | 0.00 | 0.00 | 78 | 1017.2 |
| 20260901002838 | 80 | 189 | 0.0 | 0.0 | 0.00 | 0.00 | 0.00 | 78 | 1017.1 |
| 20260901002337 | 80 | 189 | 0.0 | 0.0 | 0.00 | 0.00 | 0.00 | 77 | 1017.1 |
| 20260901001832 | 80 | 189 | 0.0 | 0.0 | 0.00 | 0.00 | 0.00 | 77 | 1016.9 |
| 20260901001327 | 80 | 189 | 0.0 | 0.0 | 0.00 | 0.00 | 0.00 | 76 | 1016.9 |
| 20260901000823 | 80 | 189 | 0.0 | 0.0 | 0.00 | 0.00 | 0.00 | 76 | 1016.9 |
| 20260901000318 | 81 | 189 | 0.0 | 0.0 | 0.00 | 0.00 | 0.00 | 75 | 1017.0 |
| 20260831235816 | 81 | 189 | 0.0 | 0.0 | 0.00 | 0.00 | 0.00 | 75 | 1017.1 |
| 20260831235312 | 82 | 189 | 0.0 | 0.0 | 0.00 | 0.00 | 0.00 | 74 | 1016.8 |
| 20260831234808 | 82 | 189 | 0.0 | 0.0 | 0.00 | 0.00 | 0.00 | 74 | 1017.0 |
| 20260831234307 | 83 | 188 | 0.0 | 0.0 | 0.00 | 0.00 | 0.00 | 73 | 1016.9 |
| 20260831233803 | 83 | 188 | 0.0 | 0.0 | 0.00 | 0.00 | 0.00 | 71 | 1017.0 |
| 20260831233258 | 84 | 188 | 0.0 | 0.0 | 0.00 | 0.00 | 0.00 | 71 | 1016.7 |
| 20260831232752 | 84 | 188 | 0.0 | 0.0 | 0.00 | 0.00 | 0.00 | 70 | 1016.9 |
| 20260831232249 | 85 | 188 | 0.0 | 0.0 | 0.00 | 0.00 | 0.00 | 67 | 1016.8 |
| 20260831231744 | 86 | 188 | 0.0 | 0.0 | 0.00 | 0.00 | 0.00 | 64 | 1016.9 |
| 20260831231241 | 86 | 188 | 0.0 | 0.9 | 0.00 | 0.00 | 0.00 | 64 | 1016.7 |
| 20260831230736 | 87 | 188 | 0.0 | 0.0 | 0.00 | 0.00 | 0.00 | 62 | 1016.6 |
| 20260831230231 | 88 | 188 | 0.0 | 0.0 | 0.00 | 0.00 | 0.00 | 59 | 1016.7 |
| 20260831225730 | 88 | 189 | 0.0 | 0.0 | 0.00 | 0.00 | 0.00 | 58 | 1016.7 |
| 20260831225226 | 89 | 205 | 0.0 | 0.0 | 0.00 | 0.00 | 0.00 | 55 | 1016.9 |
| 20260831224720 | 89 | 205 | 0.0 | 0.0 | 0.00 | 0.00 | 0.00 | 55 | 1016.8 |
| 20260831224216 | 89 | 264 | 0.9 | 0.9 | 0.00 | 0.00 | 0.00 | 53 | 1016.8 |
| 20260831223711 | 90 | 202 | 0.0 | 0.9 | 0.00 | 0.00 | 0.00 | 54 | 1016.9 |
| 20260831223208 | 89 | 342 | 0.9 | 0.9 | 0.00 | 0.00 | 0.00 | 53 | 1016.6 |
| 20260831222703 | 89 | 209 | 0.0 | 0.0 | 0.00 | 0.00 | 0.00 | 57 | 1016.6 |
| 20260831222159 | 90 | 209 | 0.0 | 0.0 | 0.00 | 0.00 | 0.00 | 57 | 1016.8 |
| 20260831221654 | 90 | 209 | 0.0 | 0.0 | 0.00 | 0.00 | 0.00 | 55 | 1016.6 |
| 20260831221149 | 90 | 208 | 0.0 | 0.0 | 0.00 | 0.00 | 0.00 | 55 | 1016.5 |
| 20260831220644 | 90 | 177 | 0.0 | 0.0 | 0.00 | 0.00 | 0.00 | 57 | 1016.8 |
| 20260831220139 | 89 | 177 | 0.0 | 0.0 | 0.00 | 0.00 | 0.00 | 56 | 1016.8 |
| 20260831215634 | 89 | 177 | 0.9 | 0.9 | 0.00 | 0.00 | 0.00 | 56 | 1016.7 |
| 20260831215130 | 90 | 178 | 0.0 | 0.0 | 0.00 | 0.00 | 0.00 | 58 | 1017.0 |
| 20260831214627 | 90 | 203 | 0.0 | 0.0 | 0.00 | 0.00 | 0.00 | 54 | 1016.9 |
| 20260831214123 | 90 | 6 | 0.9 | 1.7 | 0.00 | 0.00 | 0.00 | 54 | 1016.8 |
| 20260831213620 | 90 | 189 | 0.0 | 0.9 | 0.00 | 0.00 | 0.00 | 56 | 1016.9 |
| 20260831213115 | 91 | 201 | 0.0 | 0.0 | 0.00 | 0.00 | 0.00 | 57 | 1017.0 |
| 20260831212611 | 91 | 178 | 0.0 | 0.9 | 0.00 | 0.00 | 0.00 | 55 | 1017.2 |
| 20260831212107 | 91 | 183 | 0.0 | 0.9 | 0.00 | 0.00 | 0.00 | 54 | 1017.1 |
| 20260831211607 | 91 | 98 | 0.9 | 0.9 | 0.00 | 0.00 | 0.00 | 54 | 1017.2 |
| 20260831211106 | 91 | 210 | 0.9 | 0.9 | 0.00 | 0.00 | 0.00 | 56 | 1017.0 |
| 20260831210601 | 91 | 184 | 0.0 | 0.0 | 0.00 | 0.00 | 0.00 | 55 | 1016.8 |
| 20260831210057 | 91 | 177 | 0.9 | 0.9 | 0.00 | 0.00 | 0.00 | 54 | 1017.1 |
| 20260831205556 | 91 | 194 | 0.0 | 0.9 | 0.00 | 0.00 | 0.00 | 54 | 1017.2 |
| 20260831205053 | 91 | 179 | 0.0 | 0.0 | 0.00 | 0.00 | 0.00 | 55 | 1017.1 |
| 20260831204547 | 91 | 190 | 0.9 | 0.9 | 0.00 | 0.00 | 0.00 | 56 | 1017.4 |
| 20260831204045 | 91 | 172 | 0.0 | 0.9 | 0.00 | 0.00 | 0.00 | 55 | 1017.4 |
| 20260831203540 | 91 | 76 | 0.9 | 1.7 | 0.00 | 0.00 | 0.00 | 58 | 1017.3 |
| 20260831203039 | 91 | 180 | 0.0 | 0.9 | 0.00 | 0.00 | 0.00 | 55 | 1017.3 |
| 20260831202533 | 91 | 175 | 0.9 | 0.9 | 0.00 | 0.00 | 0.00 | 55 | 1017.1 |
| 20260831202033 | 92 | 180 | 0.9 | 0.9 | 0.00 | 0.00 | 0.00 | 56 | 1017.2 |
| 20260831201532 | 91 | 181 | 0.9 | 0.9 | 0.00 | 0.00 | 0.00 | 57 | 1017.2 |
| 20260831201027 | 91 | 142 | 0.9 | 0.9 | 0.00 | 0.00 | 0.00 | 55 | 1017.4 |
| 20260831200523 | 93 | 160 | 0.9 | 1.7 | 0.00 | 0.00 | 0.00 | 54 | 1017.4 |
| 20260831200018 | 93 | 200 | 0.0 | 0.9 | 0.00 | 0.00 | 0.00 | 53 | 1017.2 |
| 20260831195514 | 93 | 203 | 0.0 | 0.0 | 0.00 | 0.00 | 0.00 | 53 | 1017.4 |
| 20260831195013 | 93 | 205 | 0.0 | 0.0 | 0.00 | 0.00 | 0.00 | 54 | 1017.6 |
| 20260831194509 | 92 | 195 | 0.0 | 0.0 | 0.00 | 0.00 | 0.00 | 55 | 1017.4 |
| 20260831194008 | 92 | 174 | 0.0 | 0.9 | 0.00 | 0.00 | 0.00 | 53 | 1017.6 |
| 20260831193504 | 93 | 189 | 0.0 | 0.0 | 0.00 | 0.00 | 0.00 | 51 | 1017.6 |
| 20260831192958 | 94 | 221 | 0.9 | 0.9 | 0.00 | 0.00 | 0.00 | 52 | 1017.5 |
| 20260831192453 | 93 | 152 | 0.9 | 0.9 | 0.00 | 0.00 | 0.00 | 52 | 1017.7 |
| 20260831191948 | 94 | 225 | 0.9 | 1.7 | 0.00 | 0.00 | 0.00 | 51 | 1017.8 |
| 20260831191445 | 94 | 211 | 0.0 | 0.9 | 0.00 | 0.00 | 0.00 | 49 | 1017.9 |
| 20260831190941 | 95 | 197 | 0.0 | 0.0 | 0.00 | 0.00 | 0.00 | 49 | 1018.0 |
| 20260831190435 | 93 | 212 | 0.0 | 0.9 | 0.00 | 0.00 | 0.00 | 49 | 1017.9 |
| 20260831185934 | 93 | 226 | 0.9 | 0.9 | 0.00 | 0.00 | 0.00 | 50 | 1017.8 |
| 20260831185431 | 93 | 243 | 1.7 | 2.6 | 0.00 | 0.00 | 0.00 | 51 | 1018.4 |
| 20260831184930 | 93 | 205 | 1.7 | 1.7 | 0.00 | 0.00 | 0.00 | 53 | 1018.2 |
| 20260831184425 | 93 | 211 | 0.9 | 0.9 | 0.00 | 0.00 | 0.00 | 53 | 1018.2 |
| 20260831183921 | 93 | 211 | 1.7 | 1.7 | 0.00 | 0.00 | 0.00 | 53 | 1018.2 |
| 20260831183420 | 93 | 229 | 0.9 | 0.9 | 0.00 | 0.00 | 0.00 | 52 | 1018.5 |
| 20260831182919 | 91 | 205 | 0.9 | 0.9 | 0.00 | 0.00 | 0.00 | 56 | 1018.3 |
| 20260831182415 | 92 | 73 | 2.6 | 2.6 | 0.00 | 0.00 | 0.00 | 52 | 1018.3 |
| 20260831181910 | 92 | 243 | 0.9 | 1.7 | 0.00 | 0.00 | 0.00 | 53 | 1018.6 |
| 20260831181405 | 92 | 215 | 0.0 | 0.9 | 0.00 | 0.00 | 0.00 | 54 | 1018.4 |
| 20260831180900 | 92 | 210 | 0.0 | 0.0 | 0.00 | 0.00 | 0.00 | 54 | 1018.5 |
| 20260831180354 | 93 | 346 | 3.5 | 4.3 | 0.00 | 0.00 | 0.00 | 54 | 1018.6 |
| 20260831175853 | 91 | 211 | 0.9 | 0.9 | 0.00 | 0.00 | 0.00 | 55 | 1018.6 |
| 20260831175349 | 91 | 186 | 0.0 | 0.9 | 0.00 | 0.00 | 0.00 | 55 | 1018.7 |
| 20260831174846 | 91 | 139 | 0.9 | 0.9 | 0.00 | 0.00 | 0.00 | 54 | 1018.5 |
| 20260831174341 | 90 | 216 | 0.9 | 0.9 | 0.00 | 0.00 | 0.00 | 58 | 1018.6 |
| 20260831173840 | 91 | 308 | 2.6 | 4.3 | 0.00 | 0.00 | 0.00 | 57 | 1018.7 |
| 20260831173334 | 91 | 208 | 0.0 | 0.9 | 0.00 | 0.00 | 0.00 | 58 | 1018.6 |
| 20260831172829 | 90 | 200 | 0.0 | 0.0 | 0.00 | 0.00 | 0.00 | 62 | 1018.8 |
| 20260831172325 | 90 | 328 | 1.7 | 1.7 | 0.00 | 0.00 | 0.00 | 60 | 1018.6 |
| 20260831171825 | 90 | 212 | 0.0 | 0.0 | 0.00 | 0.00 | 0.00 | 61 | 1018.7 |
| 20260831171321 | 90 | 214 | 0.9 | 0.9 | 0.00 | 0.00 | 0.00 | 62 | 1018.8 |
| 20260831170818 | 89 | 228 | 0.9 | 0.9 | 0.00 | 0.00 | 0.00 | 61 | 1018.9 |
| 20260831170314 | 89 | 253 | 1.7 | 1.7 | 0.00 | 0.00 | 0.00 | 61 | 1018.8 |
| 20260831165810 | 89 | 196 | 0.0 | 0.9 | 0.00 | 0.00 | 0.00 | 63 | 1018.8 |
| 20260831165306 | 88 | 267 | 0.9 | 1.7 | 0.00 | 0.00 | 0.00 | 62 | 1018.7 |
| 20260831164802 | 88 | 199 | 0.9 | 0.9 | 0.00 | 0.00 | 0.00 | 62 | 1018.8 |
| 20260831164258 | 89 | 225 | 0.9 | 0.9 | 0.00 | 0.00 | 0.00 | 64 | 1019.1 |
| 20260831163753 | 88 | 241 | 0.9 | 0.9 | 0.00 | 0.00 | 0.00 | 66 | 1019.2 |
| 20260831163249 | 88 | 195 | 0.9 | 0.9 | 0.00 | 0.00 | 0.00 | 64 | 1019.1 |
| 20260831162747 | 88 | 210 | 0.9 | 0.9 | 0.00 | 0.00 | 0.00 | 65 | 1018.9 |
| 20260831162242 | 89 | 213 | 0.9 | 0.9 | 0.00 | 0.00 | 0.00 | 66 | 1019.2 |
| 20260831161736 | 88 | 203 | 0.0 | 0.9 | 0.00 | 0.00 | 0.00 | 68 | 1019.3 |
| 20260831161233 | 87 | 162 | 0.9 | 1.7 | 0.00 | 0.00 | 0.00 | 67 | 1019.2 |
| 20260831160732 | 87 | 335 | 4.3 | 5.2 | 0.00 | 0.00 | 0.00 | 67 | 1019.3 |
| 20260831160227 | 87 | 344 | 0.9 | 1.7 | 0.00 | 0.00 | 0.00 | 67 | 1019.4 |
| 20260831155727 | 87 | 110 | 0.0 | 0.9 | 0.00 | 0.00 | 0.00 | 69 | 1019.3 |
| 20260831155222 | 88 | 120 | 0.9 | 0.9 | 0.00 | 0.00 | 0.00 | 67 | 1019.4 |
| 20260831154718 | 87 | 153 | 0.9 | 1.7 | 0.00 | 0.00 | 0.00 | 68 | 1019.3 |
| 20260831154214 | 86 | 151 | 0.9 | 0.9 | 0.00 | 0.00 | 0.00 | 71 | 1019.7 |
| 20260831153713 | 86 | 228 | 0.9 | 1.7 | 0.00 | 0.00 | 0.00 | 71 | 1019.6 |
| 20260831153209 | 86 | 353 | 0.9 | 1.7 | 0.00 | 0.00 | 0.00 | 71 | 1019.7 |
| 20260831152705 | 86 | 339 | 3.5 | 4.3 | 0.00 | 0.00 | 0.00 | 73 | 1019.7 |
| 20260831152201 | 86 | 25 | 1.7 | 1.7 | 0.00 | 0.00 | 0.00 | 74 | 1019.8 |
| 20260831151700 | 85 | 195 | 0.0 | 0.9 | 0.00 | 0.00 | 0.00 | 76 | 1019.9 |
| 20260831151155 | 86 | 240 | 0.9 | 1.7 | 0.00 | 0.00 | 0.00 | 74 | 1019.6 |
| 20260831150650 | 85 | 185 | 0.0 | 0.0 | 0.00 | 0.00 | 0.00 | 76 | 1019.6 |
| 20260831150145 | 85 | 261 | 2.6 | 2.6 | 0.00 | 0.00 | 0.00 | 74 | 1019.7 |
| 20260831145644 | 84 | 147 | 0.0 | 0.9 | 0.00 | 0.00 | 0.00 | 75 | 1019.7 |
| 20260831145141 | 84 | 200 | 1.7 | 1.7 | 0.00 | 0.00 | 0.00 | 76 | 1019.6 |
| 20260831144636 | 84 | 214 | 0.9 | 0.9 | 0.00 | 0.00 | 0.00 | 76 | 1019.8 |
| 20260831144132 | 84 | 331 | 2.6 | 2.6 | 0.00 | 0.00 | 0.00 | 75 | 1019.6 |
| 20260831143631 | 83 | 214 | 0.9 | 0.9 | 0.00 | 0.00 | 0.00 | 78 | 1019.7 |
| 20260831143127 | 83 | 288 | 2.6 | 2.6 | 0.00 | 0.00 | 0.00 | 77 | 1019.7 |
| 20260831142624 | 83 | 211 | 0.9 | 0.9 | 0.00 | 0.00 | 0.00 | 77 | 1019.6 |
| 20260831142119 | 82 | 305 | 1.7 | 1.7 | 0.00 | 0.00 | 0.00 | 77 | 1019.6 |
| 20260831141617 | 82 | 228 | 1.7 | 1.7 | 0.00 | 0.00 | 0.00 | 79 | 1019.5 |
| 20260831141113 | 82 | 233 | 2.6 | 4.3 | 0.00 | 0.00 | 0.00 | 80 | 1019.5 |
| 20260831140612 | 82 | 200 | 0.9 | 0.9 | 0.00 | 0.00 | 0.00 | 81 | 1019.5 |
| 20260831140107 | 82 | 328 | 0.9 | 1.7 | 0.00 | 0.00 | 0.00 | 81 | 1019.3 |
| 20260831135605 | 81 | 348 | 1.7 | 2.6 | 0.00 | 0.00 | 0.00 | 82 | 1019.3 |
| 20260831135101 | 81 | 338 | 2.6 | 2.6 | 0.00 | 0.00 | 0.00 | 83 | 1019.4 |
| 20260831134556 | 80 | 323 | 2.6 | 2.6 | 0.00 | 0.00 | 0.00 | 84 | 1019.2 |
| 20260831134051 | 80 | 211 | 0.9 | 1.7 | 0.00 | 0.00 | 0.00 | 85 | 1019.2 |
| 20260831133550 | 80 | 247 | 0.9 | 0.9 | 0.00 | 0.00 | 0.00 | 87 | 1019.4 |
| 20260831133045 | 80 | 358 | 3.5 | 4.3 | 0.00 | 0.00 | 0.00 | 86 | 1019.2 |
| 20260831132542 | 80 | 267 | 2.6 | 2.6 | 0.00 | 0.00 | 0.00 | 87 | 1019.5 |
| 20260831132040 | 80 | 209 | 0.9 | 1.7 | 0.00 | 0.00 | 0.00 | 88 | 1019.3 |
| 20260831131535 | 79 | 248 | 1.7 | 1.7 | 0.00 | 0.00 | 0.00 | 89 | 1019.1 |
| 20260831131031 | 78 | 220 | 0.9 | 1.7 | 0.00 | 0.00 | 0.00 | 90 | 1019.4 |
| 20260831130532 | 78 | 220 | 0.9 | 0.9 | 0.00 | 0.00 | 0.00 | 92 | 1019.3 |
| 20260831130027 | 77 | 196 | 0.9 | 0.9 | 0.00 | 0.00 | 0.00 | 94 | 1019.4 |
| 20260831125520 | 76 | 337 | 2.6 | 2.6 | 0.00 | 0.00 | 0.00 | 95 | 1019.4 |
| 20260831125016 | 76 | 202 | 0.0 | 0.9 | 0.00 | 0.00 | 0.00 | 95 | 1019.4 |
| 20260831124513 | 75 | 207 | 0.9 | 0.9 | 0.00 | 0.00 | 0.00 | 95 | 1019.4 |
| 20260831124008 | 75 | 193 | 0.0 | 0.0 | 0.00 | 0.00 | 0.00 | 95 | 1019.3 |
| 20260831123507 | 74 | 155 | 0.9 | 1.7 | 0.00 | 0.00 | 0.00 | 95 | 1019.5 |
| 20260831123002 | 74 | 197 | 0.0 | 0.0 | 0.00 | 0.00 | 0.00 | 95 | 1019.4 |
| 20260831122457 | 74 | 247 | 0.9 | 1.7 | 0.00 | 0.00 | 0.00 | 95 | 1019.5 |
| 20260831121952 | 74 | 200 | 0.0 | 0.0 | 0.00 | 0.00 | 0.00 | 95 | 1019.4 |
| 20260831121447 | 73 | 197 | 0.0 | 0.0 | 0.00 | 0.00 | 0.00 | 95 | 1019.2 |
| 20260831120943 | 73 | 221 | 0.9 | 0.9 | 0.00 | 0.00 | 0.00 | 95 | 1019.1 |
| 20260831120442 | 73 | 223 | 1.7 | 1.7 | 0.00 | 0.00 | 0.00 | 95 | 1019.2 |
| 20260831115937 | 72 | 200 | 0.0 | 0.0 | 0.00 | 0.00 | 0.00 | 95 | 1019.3 |
| 20260831115433 | 72 | 286 | 1.7 | 1.7 | 0.00 | 0.00 | 0.00 | 95 | 1019.2 |
| 20260831114933 | 71 | 152 | 0.0 | 0.0 | 0.00 | 0.00 | 0.00 | 95 | 1019.2 |
| 20260831114432 | 71 | 152 | 0.0 | 0.0 | 0.00 | 0.00 | 0.00 | 95 | 1019.2 |
| 20260831113928 | 70 | 152 | 0.0 | 0.0 | 0.00 | 0.00 | 0.00 | 95 | 1019.1 |
| 20260831113427 | 70 | 152 | 0.0 | 0.0 | 0.00 | 0.00 | 0.00 | 95 | 1019.3 |
| 20260831112923 | 70 | 152 | 0.0 | 0.0 | 0.00 | 0.00 | 0.00 | 95 | 1019.1 |
| 20260831112423 | 69 | 152 | 0.0 | 0.0 | 0.00 | 0.00 | 0.00 | 95 | 1019.2 |
| 20260831111918 | 69 | 152 | 0.0 | 0.0 | 0.00 | 0.00 | 0.00 | 95 | 1019.2 |
| 20260831111414 | 69 | 152 | 0.0 | 0.0 | 0.00 | 0.00 | 0.00 | 95 | 1019.3 |
| 20260831110909 | 69 | 152 | 0.0 | 0.0 | 0.00 | 0.00 | 0.00 | 95 | 1019.3 |
| 20260831110404 | 69 | 152 | 0.0 | 0.0 | 0.00 | 0.00 | 0.00 | 95 | 1019.3 |
| 20260831105902 | 69 | 152 | 0.0 | 0.0 | 0.00 | 0.00 | 0.00 | 95 | 1019.0 |
| 20260831105358 | 69 | 152 | 0.0 | 0.0 | 0.00 | 0.00 | 0.00 | 95 | 1019.2 |